Powrót do katalogu

DELTA 1 DEB

AktywnySSO
NORAD 21471·DEBRIS·🇺🇸 United States

Wystrzelony Jun 12, 1975 z Vandenberg Space Force Base

Loading…

Następne Przeloty (najbliższe 24 godziny)

TLE

ŚwieżeSource: Space-Track

Epoka: Sep 14, 2026, 10:03 UTC

1 21471U 75052FF  26257.41909193  .00000304  00000-0  39602-3 0  9992
2 21471  99.9646  55.5409 0249231 128.1226 261.2305 13.57751167748563

Śledź DELTA 1 DEB w czasie rzeczywistym z AllMySat

Download on the App Store